FW1908 Weather Reports


Display with metric or nautical units.
time (UTC)temp
F
wind
direction
speed
MPH
gust
MPH
rain 1hr
in
rain 24hr
in
rain mn
in
humidity
%
barometer
mb
20260905010059 86 277 0.0 0.0 0.00 0.00 0.00 70 1014.6
20260905005816 87 277 0.0 1.0 0.00 0.00 0.00 69 1014.7
20260905005053 87 277 0.0 1.0 0.00 0.00 0.00 69 1014.7
20260905004551 87 277 0.0 1.0 0.00 0.00 0.00 68 1014.8
20260905004049 87 277 0.0 1.0 0.00 0.00 0.00 68 1014.9
20260905003551 88 277 0.0 0.0 0.00 0.00 0.00 68 1014.9
20260905003051 88 277 0.0 0.0 0.00 0.00 0.00 67 1014.9
20260905002550 88 277 0.0 0.0 0.00 0.00 0.00 66 1014.9
20260905002048 89 277 0.0 0.0 0.00 0.00 0.00 66 1014.8
20260905001548 89 277 0.0 1.0 0.00 0.00 0.00 65 1014.9
20260905001047 89 277 0.0 1.0 0.00 0.00 0.00 64 1014.9
20260905000812 89 277 0.0 1.0 0.00 0.00 0.00 63 1014.7
20260905000046 89 277 0.0 0.0 0.00 0.00 0.00 62 1014.6
20260904235542 90 277 0.0 0.0 0.00 0.00 0.00 62 1014.5
20260904235040 90 277 0.0 0.0 0.00 0.00 0.00 62 1014.5
20260904234538 91 277 0.0 0.0 0.00 0.00 0.00 61 1014.4
20260904234038 91 277 0.0 1.0 0.00 0.00 0.00 61 1014.3
20260904233538 91 277 0.0 1.0 0.00 0.00 0.00 61 1014.4
20260904233036 92 277 0.0 1.0 0.00 0.00 0.00 60 1014.4
20260904232537 92 277 0.0 1.0 0.00 0.00 0.00 60 1014.3
20260904232256 92 277 0.0 1.0 0.00 0.00 0.00 59 1014.4
20260904231034 92 277 0.0 1.0 0.00 0.00 0.00 59 1014.1
20260904230527 93 277 0.0 2.0 0.00 0.00 0.00 58 1013.9
20260904230023 93 277 0.0 2.0 0.00 0.00 0.00 58 1014.0
20260904225516 93 277 1.0 2.0 0.00 0.00 0.00 57 1014.1
20260904225011 93 277 1.0 2.0 0.00 0.00 0.00 56 1014.0
20260904224503 93 277 1.0 2.0 0.00 0.00 0.00 57 1014.0
20260904223958 94 277 1.0 3.0 0.00 0.00 0.00 57 1013.9
20260904223452 94 277 1.0 3.0 0.00 0.00 0.00 56 1014.0
20260904222946 94 275 1.0 3.0 0.00 0.00 0.00 55 1014.0
20260904222440 94 277 1.0 3.0 0.00 0.00 0.00 56 1014.1
20260904221933 94 276 1.0 2.0 0.00 0.00 0.00 54 1014.1
20260904221428 94 275 2.0 3.0 0.00 0.00 0.00 54 1014.3
20260904221151 94 275 2.0 6.0 0.00 0.00 0.00 55 1014.3
20260904220416 94 256 3.0 6.0 0.00 0.00 0.00 54 1014.3
20260904215910 94 308 3.0 7.0 0.00 0.00 0.00 54 1014.1
20260904215405 94 286 3.0 8.0 0.00 0.00 0.00 54 1014.0
20260904214858 94 309 2.0 8.0 0.00 0.00 0.00 54 1014.1
20260904214617 94 296 2.0 4.0 0.00 0.00 0.00 54 1014.1
20260904213846 94 216 2.0 4.0 0.00 0.00 0.00 54 1014.3
20260904213341 94 248 1.0 4.0 0.00 0.00 0.00 54 1014.3
20260904212834 95 247 2.0 5.0 0.00 0.00 0.00 55 1014.3
20260904212328 95 257 2.0 5.0 0.00 0.00 0.00 54 1014.3
20260904211822 95 242 2.0 6.0 0.00 0.00 0.00 54 1014.3
20260904211316 95 267 2.0 6.0 0.00 0.00 0.00 54 1014.4
20260904210810 95 259 2.0 6.0 0.00 0.00 0.00 54 1014.3
20260904210303 95 278 2.0 6.0 0.00 0.00 0.00 55 1014.4
20260904210021 95 97 2.0 5.0 0.00 0.00 0.00 55 1014.5
20260904205250 95 154 1.0 4.0 0.00 0.00 0.00 55 1014.5
20260904204745 96 205 1.0 3.0 0.00 0.00 0.00 53 1014.5
20260904203956 96 178 2.0 6.0 0.00 0.00 0.00 52 1014.6
20260904203226 97 79 2.0 6.0 0.00 0.00 0.00 51 1014.6
20260904202942 97 137 2.0 6.0 0.00 0.00 0.00 49 1014.6
20260904202215 97 144 2.0 6.0 0.00 0.00 0.00 50 1014.6
20260904201708 98 266 2.0 6.0 0.00 0.00 0.00 51 1014.6
20260904201202 98 80 2.0 6.0 0.00 0.00 0.00 51 1014.7
20260904200700 98 79 1.0 6.0 0.00 0.00 0.00 52 1014.9
20260904200200 97 229 1.0 5.0 0.00 0.00 0.00 53 1014.9
20260904195659 97 215 1.0 5.0 0.00 0.00 0.00 53 1015.0
20260904195159 97 144 1.0 3.0 0.00 0.00 0.00 53 1015.1
20260904194658 97 144 1.0 3.0 0.00 0.00 0.00 53 1015.2
20260904194156 98 144 1.0 4.0 0.00 0.00 0.00 52 1015.4
20260904193656 98 146 2.0 4.0 0.00 0.00 0.00 52 1015.5
20260904193156 98 80 1.0 4.0 0.00 0.00 0.00 52 1015.5
20260904192656 98 205 1.0 4.0 0.00 0.00 0.00 53 1015.6
20260904192154 98 212 2.0 5.0 0.00 0.00 0.00 52 1015.6
20260904191651 98 255 2.0 6.0 0.00 0.00 0.00 52 1015.7
20260904191153 97 269 2.0 6.0 0.00 0.00 0.00 55 1015.8
20260904190648 96 321 3.0 8.0 0.00 0.00 0.00 52 1016.0
20260904190148 96 302 3.0 8.0 0.00 0.00 0.00 53 1016.1
20260904185416 96 266 2.0 7.0 0.00 0.00 0.00 57 1016.1
20260904184644 96 299 2.0 4.0 0.00 0.00 0.00 57 1016.2
20260904184144 96 5 1.0 3.0 0.00 0.00 0.00 55 1016.3
20260904183915 96 11 2.0 5.0 0.00 0.00 0.00 54 1016.3
20260904183138 97 113 1.0 5.0 0.00 0.00 0.00 53 1016.4
20260904182631 96 98 1.0 4.0 0.00 0.00 0.00 53 1016.4
20260904182126 97 97 2.0 4.0 0.00 0.00 0.00 55 1016.5
20260904181620 97 159 2.0 6.0 0.00 0.00 0.00 53 1016.5
20260904181114 97 91 2.0 6.0 0.00 0.00 0.00 55 1016.5
20260904180608 97 265 2.0 4.0 0.00 0.00 0.00 55 1016.5
20260904180323 97 26 2.0 4.0 0.00 0.00 0.00 57 1016.6
20260904175602 97 275 2.0 6.0 0.00 0.00 0.00 57 1016.6
20260904175100 97 271 2.0 6.0 0.00 0.00 0.00 54 1016.7
20260904174601 97 262 1.0 4.0 0.00 0.00 0.00 59 1016.7
20260904174100 96 252 3.0 6.0 0.00 0.00 0.00 57 1016.8
20260904173600 96 225 3.0 8.0 0.00 0.00 0.00 55 1016.8
20260904173100 96 324 3.0 8.0 0.00 0.00 0.00 58 1016.8
20260904172600 96 286 3.0 7.0 0.00 0.00 0.00 59 1016.8
20260904172100 96 225 2.0 6.0 0.00 0.00 0.00 57 1016.8
20260904171819 95 232 2.0 4.0 0.00 0.00 0.00 57 1017.0
20260904171058 95 322 3.0 6.0 0.00 0.00 0.00 57 1017.1
20260904170826 95 238 2.0 7.0 0.00 0.00 0.00 57 1017.1
20260904170056 95 290 2.0 7.0 0.00 0.00 0.00 59 1017.2
20260904165556 94 136 2.0 5.0 0.00 0.00 0.00 61 1017.3
20260904165056 94 317 3.0 6.0 0.00 0.00 0.00 61 1017.3
20260904164554 94 331 3.0 9.0 0.00 0.00 0.00 57 1017.4
20260904164054 94 317 2.0 9.0 0.00 0.00 0.00 61 1017.4
20260904163554 94 167 2.0 6.0 0.00 0.00 0.00 61 1017.5
20260904163053 93 309 2.0 6.0 0.00 0.00 0.00 60 1017.5
20260904162553 93 280 3.0 8.0 0.00 0.00 0.00 61 1017.6
20260904162050 93 282 3.0 8.0 0.00 0.00 0.00 60 1017.7
20260904161550 93 257 3.0 8.0 0.00 0.00 0.00 61 1017.7
20260904161048 92 329 3.0 8.0 0.00 0.00 0.00 60 1017.8
20260904160545 92 320 3.0 9.0 0.00 0.00 0.00 67 1017.8
20260904160045 92 242 3.0 9.0 0.00 0.00 0.00 64 1017.9
20260904155544 92 321 2.0 8.0 0.00 0.00 0.00 64 1018.0
20260904155044 92 199 2.0 5.0 0.00 0.00 0.00 65 1018.0
20260904154043 91 294 3.0 8.0 0.00 0.00 0.00 66 1018.0
20260904153544 90 234 3.0 8.0 0.00 0.00 0.00 65 1018.0
20260904153039 90 229 3.0 5.0 0.00 0.00 0.00 66 1018.1
20260904152805 90 323 2.0 6.0 0.00 0.00 0.00 66 1018.1
20260904152040 90 336 3.0 9.0 0.00 0.00 0.00 66 1018.1
20260904151806 90 250 3.0 9.0 0.00 0.00 0.00 67 1018.1
20260904151040 90 251 2.0 5.0 0.00 0.00 0.00 70 1018.1
20260904150759 89 265 3.0 8.0 0.00 0.00 0.00 69 1018.0
20260904150040 89 223 3.0 8.0 0.00 0.00 0.00 70 1018.1
20260904145540 89 226 3.0 6.0 0.00 0.00 0.00 71 1018.2
20260904145040 88 336 3.0 6.0 0.00 0.00 0.00 73 1018.1
20260904144536 87 317 2.0 5.0 0.00 0.00 0.00 73 1018.1
20260904144035 87 243 2.0 5.0 0.00 0.00 0.00 75 1018.1
20260904143536 87 138 2.0 5.0 0.00 0.00 0.00 74 1018.1
20260904143035 86 260 2.0 6.0 0.00 0.00 0.00 75 1018.1
20260904142804 86 219 2.0 6.0 0.00 0.00 0.00 76 1018.1
20260904142255 85 271 3.0 6.0 0.00 0.00 0.00 77 1018.0
20260904141537 85 314 3.0 6.0 0.00 0.00 0.00 77 1018.0
20260904141256 85 294 3.0 8.0 0.00 0.00 0.00 78 1018.0
20260904140537 84 323 3.0 8.0 0.00 0.00 0.00 79 1018.0
20260904140036 84 264 2.0 6.0 0.00 0.00 0.00 80 1018.0
20260904135536 83 290 2.0 6.0 0.00 0.00 0.00 82 1017.9
20260904134536 82 182 3.0 7.0 0.00 0.00 0.00 83 1017.9
20260904134035 82 317 3.0 7.0 0.00 0.00 0.00 84 1017.9
20260904133535 81 280 3.0 7.0 0.00 0.00 0.00 86 1017.9
20260904133034 80 313 3.0 7.0 0.00 0.00 0.00 87 1018.0
20260904132534 80 297 2.0 5.0 0.00 0.00 0.00 87 1017.9
20260904132035 79 252 2.0 6.0 0.00 0.00 0.00 88 1017.9
20260904131529 79 224 2.0 6.0 0.00 0.00 0.00 89 1018.0
20260904131029 78 239 2.0 5.0 0.00 0.00 0.00 89 1018.1
20260904130529 78 277 2.0 4.0 0.00 0.00 0.00 90 1018.0
20260904130028 78 275 2.0 4.0 0.00 0.00 0.00 90 1018.1
20260904125524 78 244 2.0 4.0 0.00 0.00 0.00 91 1018.1
20260904125024 77 245 2.0 4.0 0.00 0.00 0.00 91 1018.2
20260904124521 77 245 1.0 4.0 0.00 0.00 0.00 91 1018.1
20260904124021 77 254 1.0 3.0 0.00 0.00 0.00 91 1018.1
20260904123519 77 254 2.0 3.0 0.00 0.00 0.00 92 1018.1
20260904123019 76 253 2.0 4.0 0.00 0.00 0.00 92 1018.1
20260904122520 76 252 1.0 4.0 0.00 0.00 0.00 92 1018.1
20260904122240 76 288 1.0 3.0 0.00 0.00 0.00 92 1018.1
20260904121517 76 288 1.0 3.0 0.00 0.00 0.00 92 1018.2
20260904121238 76 344 0.0 3.0 0.00 0.00 0.00 92 1018.2
20260904120515 76 344 0.0 0.0 0.00 0.00 0.00 92 1018.2
20260904120016 76 344 0.0 0.0 0.00 0.00 0.00 92 1018.2
20260904115509 75 344 0.0 0.0 0.00 0.00 0.00 91 1018.2
20260904115002 75 344 0.0 0.0 0.00 0.00 0.00 91 1018.1
20260904114501 75 344 0.0 0.0 0.00 0.00 0.00 90 1018.0
20260904114002 75 344 0.0 0.0 0.00 0.00 0.00 90 1018.0
20260904113459 75 344 0.0 0.0 0.00 0.00 0.00 90 1017.9
20260904112958 75 344 0.0 0.0 0.00 0.00 0.00 90 1017.8
20260904112458 75 344 0.0 0.0 0.00 0.00 0.00 90 1017.7
20260904112220 75 344 0.0 0.0 0.00 0.00 0.00 90 1017.7
20260904111720 75 344 0.0 0.0 0.00 0.00 0.00 90 1017.7
20260904110455 75 344 0.0 0.0 0.00 0.00 0.00 90 1017.6
20260904105954 75 344 0.0 0.0 0.00 0.00 0.00 90 1017.5
20260904105712 75 344 0.0 0.0 0.00 0.00 0.00 90 1017.5
20260904104951 75 344 0.0 0.0 0.00 0.00 0.00 89 1017.5
20260904104451 75 344 0.0 0.0 0.00 0.00 0.00 89 1017.4
20260904103950 75 344 0.0 0.0 0.00 0.00 0.00 89 1017.3
20260904103712 75 344 0.0 0.0 0.00 0.00 0.00 89 1017.3
20260904102947 76 344 0.0 0.0 0.00 0.00 0.00 89 1017.3
20260904102447 76 344 0.0 0.0 0.00 0.00 0.00 89 1017.3
20260904101711 76 344 0.0 0.0 0.00 0.00 0.00 89 1017.3
20260904100942 76 344 0.0 0.0 0.00 0.00 0.00 89 1017.3
20260904100434 76 344 0.0 0.0 0.00 0.00 0.00 89 1017.2
20260904095930 76 344 0.0 0.0 0.00 0.00 0.00 89 1017.3
20260904095423 76 344 0.0 0.0 0.00 0.00 0.00 88 1017.2
20260904094916 76 344 0.0 0.0 0.00 0.00 0.00 88 1017.2
20260904093905 76 344 0.0 0.0 0.00 0.00 0.00 88 1017.1
20260904093358 76 344 0.0 0.0 0.00 0.00 0.00 88 1017.2
20260904092854 76 344 0.0 0.0 0.00 0.00 0.00 88 1017.1
20260904092604 76 344 0.0 0.0 0.00 0.00 0.00 88 1017.2
20260904091840 76 344 0.0 0.0 0.00 0.00 0.00 88 1017.0
20260904091335 76 344 0.0 0.0 0.00 0.00 0.00 87 1017.0
20260904090829 77 344 0.0 0.0 0.00 0.00 0.00 87 1017.0
20260904090324 77 344 0.0 0.0 0.00 0.00 0.00 87 1017.0
20260904090042 77 344 0.0 0.0 0.00 0.00 0.00 87 1017.0
20260904085538 77 344 0.0 0.0 0.00 0.00 0.00 87 1017.0
20260904084805 77 344 0.0 0.0 0.00 0.00 0.00 87 1017.0
20260904084300 77 344 0.0 0.0 0.00 0.00 0.00 87 1016.9
20260904083753 77 344 0.0 0.0 0.00 0.00 0.00 86 1016.8
20260904083246 77 344 0.0 0.0 0.00 0.00 0.00 86 1016.9
20260904082741 77 344 0.0 0.0 0.00 0.00 0.00 86 1016.8
20260904082235 77 344 0.0 0.0 0.00 0.00 0.00 86 1016.9
20260904081729 77 344 0.0 0.0 0.00 0.00 0.00 86 1016.8
20260904081223 77 344 0.0 0.0 0.00 0.00 0.00 86 1016.8
20260904080716 78 344 0.0 0.0 0.00 0.00 0.00 86 1016.8
20260904075706 78 344 0.0 0.0 0.00 0.00 0.00 85 1016.8
20260904075159 78 344 0.0 1.0 0.00 0.00 0.00 85 1016.8
20260904074911 78 344 0.0 1.0 0.00 0.00 0.00 85 1016.8
20260904074407 78 344 0.0 0.0 0.00 0.00 0.00 85 1016.8
20260904073907 78 344 0.0 0.0 0.00 0.00 0.00 84 1016.8
20260904073134 78 344 0.0 0.0 0.00 0.00 0.00 84 1016.9
20260904072630 78 344 0.0 0.0 0.00 0.00 0.00 84 1016.9
20260904072122 78 344 0.0 0.0 0.00 0.00 0.00 84 1016.9
20260904071842 78 344 0.0 1.0 0.00 0.00 0.00 84 1016.9
20260904071112 79 344 0.0 1.0 0.00 0.00 0.00 84 1016.9
20260904070605 79 344 0.0 0.0 0.00 0.00 0.00 83 1017.0
20260904070059 79 344 0.0 1.0 0.00 0.00 0.00 83 1017.0
20260904065553 79 344 0.0 1.0 0.00 0.00 0.00 83 1017.0
20260904065053 79 344 0.0 0.0 0.00 0.00 0.00 83 1017.0
20260904064815 79 344 0.0 0.0 0.00 0.00 0.00 83 1017.1
20260904064054 79 344 0.0 0.0 0.00 0.00 0.00 83 1017.1
20260904063551 79 344 0.0 0.0 0.00 0.00 0.00 82 1017.1
20260904063051 79 344 0.0 0.0 0.00 0.00 0.00 82 1017.1
20260904062551 80 344 0.0 0.0 0.00 0.00 0.00 82 1017.2
20260904062048 80 344 0.0 0.0 0.00 0.00 0.00 82 1017.3
20260904061548 80 344 0.0 0.0 0.00 0.00 0.00 81 1017.3
20260904061046 80 344 0.0 0.0 0.00 0.00 0.00 81 1017.3
20260904060806 80 344 0.0 0.0 0.00 0.00 0.00 81 1017.4
20260904060045 80 344 0.0 0.0 0.00 0.00 0.00 81 1017.5
20260904055807 80 344 0.0 1.0 0.00 0.00 0.00 80 1017.4
20260904055043 80 344 0.0 1.0 0.00 0.00 0.00 80 1017.5
20260904054801 81 344 0.0 0.0 0.00 0.00 0.00 80 1017.6
20260904054041 81 344 0.0 1.0 0.00 0.00 0.00 80 1017.6
20260904053539 81 344 0.0 1.0 0.00 0.00 0.00 79 1017.7
20260904053038 81 344 0.0 0.0 0.00 0.00 0.00 79 1017.6
20260904052536 81 344 0.0 0.0 0.00 0.00 0.00 79 1017.7
20260904052038 81 344 0.0 0.0 0.00 0.00 0.00 79 1017.8
20260904051532 81 344 0.0 0.0 0.00 0.00 0.00 78 1017.8
20260904051033 82 344 0.0 0.0 0.00 0.00 0.00 78 1017.8
20260904050531 82 344 0.0 1.0 0.00 0.00 0.00 78 1017.8
20260904050251 82 344 0.0 1.0 0.00 0.00 0.00 78 1017.9
20260904045757 82 344 0.0 2.0 0.00 0.00 0.00 77 1017.9
20260904045029 82 344 0.0 2.0 0.00 0.00 0.00 77 1017.9
20260904044527 82 311 0.0 1.0 0.00 0.00 0.00 77 1017.9
20260904044027 82 311 0.0 2.0 0.00 0.00 0.00 77 1017.9
20260904043527 82 311 0.0 2.0 0.00 0.00 0.00 77 1017.8
20260904043026 82 311 0.0 3.0 0.00 0.00 0.00 77 1017.9
20260904042748 82 311 0.0 3.0 0.00 0.00 0.00 77 1017.8
20260904041741 82 230 0.0 2.0 0.00 0.00 0.00 77 1017.8
20260904041022 82 230 0.0 4.0 0.00 0.00 0.00 77 1017.7
20260904040522 82 230 0.0 4.0 0.00 0.00 0.00 77 1017.7
20260904040021 82 274 0.0 2.0 0.00 0.00 0.00 77 1017.7
20260904035515 82 265 0.0 3.0 0.00 0.00 0.00 77 1017.8
20260904035009 82 265 0.0 3.0 0.00 0.00 0.00 77 1017.8
20260904033956 82 265 0.0 4.0 0.00 0.00 0.00 77 1018.0
20260904033451 82 199 0.0 3.0 0.00 0.00 0.00 77 1018.1
20260904032945 82 94 0.0 2.0 0.00 0.00 0.00 77 1018.0
20260904032704 83 94 0.0 2.0 0.00 0.00 0.00 77 1018.0
20260904031933 83 90 0.0 0.0 0.00 0.00 0.00 77 1018.0
20260904031427 83 90 0.0 0.0 0.00 0.00 0.00 77 1018.0
20260904030420 83 90 0.0 0.0 0.00 0.00 0.00 77 1018.0
20260904025922 83 90 0.0 0.0 0.00 0.00 0.00 77 1018.0
20260904025421 83 90 0.0 0.0 0.00 0.00 0.00 76 1018.0
20260904024919 83 90 0.0 0.0 0.00 0.00 0.00 76 1018.1
20260904024418 83 90 0.0 0.0 0.00 0.00 0.00 77 1018.1
20260904024143 83 90 0.0 0.0 0.00 0.00 0.00 76 1018.1
20260904023420 83 90 0.0 0.0 0.00 0.00 0.00 76 1018.0
20260904022917 84 90 0.0 2.0 0.00 0.00 0.00 76 1018.0
20260904022415 84 90 0.0 2.0 0.00 0.00 0.00 75 1017.9
20260904021915 84 90 0.0 0.0 0.00 0.00 0.00 75 1018.0
20260904021415 84 90 0.0 0.0 0.00 0.00 0.00 75 1018.0
20260904020912 84 90 0.0 0.0 0.00 0.00 0.00 74 1018.0
20260904020633 84 90 0.0 0.0 0.00 0.00 0.00 74 1017.9
20260904015913 84 90 0.0 0.0 0.00 0.00 0.00 74 1017.8
20260904015411 85 90 0.0 0.0 0.00 0.00 0.00 74 1017.8
20260904015138 85 90 0.0 0.0 0.00 0.00 0.00 73 1017.8
20260904014405 85 90 0.0 0.0 0.00 0.00 0.00 73 1017.7
20260904014135 85 90 0.0 0.0 0.00 0.00 0.00 73 1017.6
20260904013629 85 90 0.0 0.0 0.00 0.00 0.00 72 1017.6
20260904012900 85 90 0.0 0.0 0.00 0.00 0.00 71 1017.5
20260904012400 86 90 0.0 0.0 0.00 0.00 0.00 71 1017.4
20260904011858 86 90 0.0 0.0 0.00 0.00 0.00 70 1017.3
20260904011358 86 90 0.0 0.0 0.00 0.00 0.00 70 1017.3
20260904010857 86 90 0.0 0.0 0.00 0.00 0.00 69 1017.1
20260904010357 87 90 0.0 0.0 0.00 0.00 0.00 69 1017.1